Home   Weather   Poitiers   Past weeks
Flag for France

Past Weather in Poitiers, Nouvelle-Aquitaine, France — Yesterday and Last 2 Weeks

Now
64 °F

Mild.


Feels Like: 64 °F
Forecast: 82 / 61 °F
Wind: 7 mph from Southwest

Location: Poitiers Airport

Current Time: Jul 19, 2019 at 4:17:08 am

Latest Report: Jul 19, 2019 at 3:30 am


Visibility: N/A

Pressure: 30.04 "Hg

Humidity: 94%

Dew Point: 63 °F

Location of PoitiersLocation

Past Weather in Poitiers — Graph

°F

Poitiers Temperature Yesterday

Maximum temperature yesterday: 79 °F (at 3:30 pm)
Minimum temperature yesterday: 55 °F (at 6:00 am)
Average temperature yesterday: 68 °F

High & Low Weather Summary for the Past Weeks

 TemperatureHumidityPressure
High93 °F (Jul 5, 4:00 pm)100% (Jul 18, 6:00 am)30.12 "Hg (Jul 18, 6:00 am)
Low54 °F (Jul 16, 6:00 am)21% (Jul 9, 4:30 pm)29.83 "Hg (Jul 6, 6:30 pm)
Average73 °F51%30.01 "Hg
* Reported Jul 4 3:00 am — Jul 19 3:00 am, Poitiers. Weather by CustomWeather, © 2019

Note: Actual official high and low records may vary slightly from our data, if they occured in-between our weather recording intervals... More about our weather records

Advertising

Poitiers Weather History for the Previous 24 Hours

Scroll right to see more
 ConditionsComfort  
Time TempWeatherWind HumidityBarometerVisibility
3:00 am
Fri, Jul 19
64 °FMild.8 mph94%30.04 "HgN/A
2:30 am64 °FMild.12 mph94%30.04 "HgN/A
2:00 am66 °FMild.10 mph83%30.04 "HgN/A
1:30 am66 °FMild.7 mph83%30.04 "HgN/A
1:00 am66 °FMild.8 mph78%30.04 "HgN/A
12:30 am66 °FMild.8 mph78%30.04 "HgN/A
12:00 am68 °FMild.7 mph73%30.04 "HgN/A
11:30 pm
Thu, Jul 18
66 °FMild.7 mph78%30.04 "HgN/A
11:00 pm68 °FMild.9 mph73%30.04 "HgN/A
10:30 pm70 °FMild.10 mph69%30.04 "HgN/A
10:00 pm70 °FMild.10 mph69%30.04 "HgN/A
9:30 pm70 °FMild.13 mph69%30.01 "HgN/A
9:00 pm72 °FMild.13 mph61%30.01 "HgN/A
8:30 pm72 °FMild.14 mph61%30.01 "HgN/A
8:00 pm73 °FMild.15 mph57%30.01 "HgN/A
7:30 pm73 °FMild.16 mph57%30.01 "HgN/A
7:00 pm75 °FMild.16 mph50%30.01 "HgN/A
6:30 pm77 °FWarm.16 mph47%30.01 "HgN/A
6:00 pm79 °FWarm.16 mph45%30.01 "HgN/A
5:30 pm77 °FWarm.15 mph47%30.01 "HgN/A
5:00 pm79 °FWarm.16 mph45%30.01 "HgN/A
4:30 pm79 °FWarm.15 mph42%30.01 "HgN/A
4:00 pm79 °FWarm.14 mph42%30.01 "HgN/A
3:30 pm79 °FWarm.13 mph42%30.01 "HgN/A
3:00 pm77 °FWarm.12 mph44%30.01 "HgN/A
2:30 pm77 °FWarm.12 mph44%30.01 "HgN/A
2:00 pm75 °FMild.13 mph47%30.01 "HgN/A
1:30 pm75 °FMild.13 mph47%30.01 "HgN/A
1:00 pm75 °FMild.13 mph47%30.04 "HgN/A
12:30 pm72 °FMild.13 mph53%30.04 "HgN/A
12:00 pm70 °FMild.12 mph60%30.04 "HgN/A
11:30 am72 °FMild.12 mph53%30.04 "HgN/A
11:00 am70 °FMild.8 mph57%30.04 "HgN/A
10:30 am68 °FMild.7 mph60%30.04 "HgN/A
10:00 am66 °FMild.7 mph64%30.04 "HgN/A
9:30 am64 °FMild.7 mph68%30.04 "HgN/A
9:00 am63 °FMild.6 mph73%30.01 "HgN/A
8:30 am61 °FCool.7 mph83%30.01 "HgN/A
8:00 am59 °FCool.6 mph88%30.01 "HgN/A
7:30 am57 °FCool.8 mph94%30.01 "HgN/A
7:00 am57 °FCool.7 mph94%29.98 "HgN/A
6:30 am55 °FCool.6 mph100%29.98 "HgN/A
6:00 am55 °FCool.6 mph100%29.98 "HgN/A
5:30 am57 °FCool.7 mph94%29.98 "HgN/A
5:00 am57 °FCool.6 mph88%29.98 "HgN/A
4:30 am57 °FCool.8 mph88%29.98 "HgN/A
4:00 am57 °FCool.8 mph88%29.98 "HgN/A
Weather by CustomWeather, © 2019

See weather overview